Time,TemperatureF,DewpointF,PressureIn,WindDirection,WindDirectionDegrees,WindSpeedMPH,WindSpeedGustMPH,Humidity,HourlyPrecipIn,Conditions,Clouds,dailyrainin,SoftwareType,DateUTC
2013-02-18 00:00:00,55.6,29.8,29.80,SSW,208,12.0,17.0,37,0.00,,,0.00,VWS V14.01,2013-02-18 06:00:00,
2013-02-18 00:05:00,55.5,29.7,29.80,South,172,13.5,19.0,37,0.00,,,0.00,VWS V14.01,2013-02-18 06:05:00,
2013-02-18 00:10:00,55.4,29.6,29.79,South,186,4.5,19.0,37,0.00,,,0.00,VWS V14.01,2013-02-18 06:10:00,
2013-02-18 00:15:00,55.2,30.1,29.79,SSW,193,13.5,19.0,38,0.00,,,0.00,VWS V14.01,2013-02-18 06:15:00,
2013-02-18 00:20:00,55.4,29.6,29.79,South,190,12.0,19.0,37,0.00,,,0.00,VWS V14.01,2013-02-18 06:20:00,
2013-02-18 00:25:00,55.4,30.2,29.79,South,174,10.5,19.0,38,0.00,,,0.00,VWS V14.01,2013-02-18 06:25:00,
2013-02-18 00:30:00,55.3,30.1,29.79,SSE,152,16.5,19.0,38,0.00,,,0.00,VWS V14.01,2013-02-18 06:30:00,
2013-02-18 00:35:00,55.3,30.1,29.79,South,180,12.0,19.0,38,0.00,,,0.00,VWS V14.01,2013-02-18 06:35:00,
2013-02-18 00:40:00,55.1,30.0,29.78,SSE,166,15.0,19.0,38,0.00,,,0.00,VWS V14.01,2013-02-18 06:40:00,
2013-02-18 00:45:00,55.1,30.0,29.79,SW,222,9.0,19.0,38,0.00,,,0.00,VWS V14.01,2013-02-18 06:45:00,
2013-02-18 00:50:00,55.1,30.0,29.79,WSW,243,6.0,19.0,38,0.00,,,0.00,VWS V14.01,2013-02-18 06:50:00,
2013-02-18 00:55:00,55.0,30.5,29.78,SSW,203,13.5,19.0,39,0.00,,,0.00,VWS V14.01,2013-02-18 06:55:00,
2013-02-18 01:00:00,54.9,30.4,29.78,South,172,12.0,19.0,39,0.00,,,0.00,VWS V14.01,2013-02-18 07:00:00,
2013-02-18 01:05:00,54.9,30.4,29.78,South,174,13.5,19.0,39,0.00,,,0.00,VWS V14.01,2013-02-18 07:05:00,
2013-02-18 01:10:00,54.9,31.0,29.78,SE,124,13.5,19.0,40,0.00,,,0.00,VWS V14.01,2013-02-18 07:10:00,
2013-02-18 01:15:00,54.9,31.0,29.78,SSW,194,6.0,19.0,40,0.00,,,0.00,VWS V14.01,2013-02-18 07:15:00,
2013-02-18 01:20:00,54.7,30.9,29.78,South,184,13.5,19.0,40,0.00,,,0.00,VWS V14.01,2013-02-18 07:20:00,
2013-02-18 01:25:00,54.8,31.0,29.78,South,181,13.5,19.0,40,0.00,,,0.00,VWS V14.01,2013-02-18 07:25:00,
2013-02-18 01:30:00,54.7,31.5,29.78,SSE,165,15.0,19.0,41,0.00,,,0.00,VWS V14.01,2013-02-18 07:30:00,
2013-02-18 01:35:00,54.6,31.4,29.78,SSW,198,7.5,19.0,41,0.00,,,0.00,VWS V14.01,2013-02-18 07:35:00,
2013-02-18 01:40:00,54.7,32.1,29.78,SSW,201,6.0,19.0,42,0.00,,,0.00,VWS V14.01,2013-02-18 07:40:00,
2013-02-18 01:45:00,54.6,32.0,29.78,SW,226,6.0,19.0,42,0.00,,,0.00,VWS V14.01,2013-02-18 07:45:00,
2013-02-18 01:50:00,54.6,32.6,29.78,SSE,160,9.0,19.0,43,0.00,,,0.00,VWS V14.01,2013-02-18 07:50:00,
2013-02-18 01:55:00,54.5,32.5,29.78,SSW,212,13.5,19.0,43,0.00,,,0.00,VWS V14.01,2013-02-18 07:55:00,
2013-02-18 02:00:00,54.4,33.0,29.78,SSE,165,10.5,10.5,44,0.00,,,0.00,VWS V14.01,2013-02-18 08:00:00,
2013-02-18 02:05:00,54.3,33.4,29.78,SSE,148,6.0,18.0,45,0.00,,,0.00,VWS V14.01,2013-02-18 08:05:00,
2013-02-18 02:10:00,54.3,33.4,29.77,SSE,163,7.5,18.0,45,0.00,,,0.00,VWS V14.01,2013-02-18 08:10:00,
2013-02-18 02:15:00,54.2,33.9,29.77,South,173,7.5,18.0,46,0.00,,,0.00,VWS V14.01,2013-02-18 08:15:00,
2013-02-18 02:20:00,54.1,33.8,29.77,South,175,15.0,18.0,46,0.00,,,0.00,VWS V14.01,2013-02-18 08:20:00,
2013-02-18 02:25:00,54.1,34.3,29.77,SSE,151,19.5,19.5,47,0.00,,,0.00,VWS V14.01,2013-02-18 08:25:00,
2013-02-18 02:30:00,54.2,35.5,29.76,South,177,18.0,18.0,49,0.00,,,0.00,VWS V14.01,2013-02-18 08:30:00,
2013-02-18 02:35:00,54.2,36.0,29.76,SSE,168,12.0,18.0,50,0.00,,,0.00,VWS V14.01,2013-02-18 08:35:00,
2013-02-18 02:40:00,54.1,35.9,29.76,South,173,12.0,18.0,50,0.00,,,0.00,VWS V14.01,2013-02-18 08:40:00,
2013-02-18 02:45:00,53.9,36.2,29.76,SSW,205,16.5,18.0,51,0.00,,,0.00,VWS V14.01,2013-02-18 08:45:00,
2013-02-18 02:50:00,53.8,36.6,29.76,SSW,201,9.0,18.0,52,0.00,,,0.00,VWS V14.01,2013-02-18 08:50:00,
2013-02-18 02:55:00,53.7,37.0,29.76,South,177,18.0,18.0,53,0.00,,,0.00,VWS V14.01,2013-02-18 08:55:00,
2013-02-18 03:00:00,53.7,37.0,29.76,WSW,239,7.5,18.0,53,0.00,,,0.00,VWS V14.01,2013-02-18 09:00:00,
2013-02-18 03:05:00,53.5,36.8,29.75,SSW,204,15.0,18.0,53,0.00,,,0.00,VWS V14.01,2013-02-18 09:05:00,
2013-02-18 03:10:00,53.4,37.2,29.75,SSW,193,4.5,18.0,54,0.00,,,0.00,VWS V14.01,2013-02-18 09:10:00,
2013-02-18 03:15:00,53.3,37.6,29.75,SSE,167,6.0,19.0,55,0.00,,,0.00,VWS V14.01,2013-02-18 09:15:00,
2013-02-18 03:20:00,53.2,37.9,29.75,SSW,198,10.5,23.0,56,0.00,,,0.00,VWS V14.01,2013-02-18 09:20:00,
2013-02-18 03:25:00,53.2,38.4,29.74,WSW,244,15.0,23.0,57,0.00,,,0.00,VWS V14.01,2013-02-18 09:25:00,
2013-02-18 03:30:00,53.1,38.3,29.74,South,171,13.5,23.0,57,0.00,,,0.00,VWS V14.01,2013-02-18 09:30:00,
2013-02-18 03:35:00,53.1,38.7,29.74,South,190,9.0,23.0,58,0.00,,,0.00,VWS V14.01,2013-02-18 09:35:00,
2013-02-18 03:40:00,53.0,39.1,29.73,South,184,18.0,23.0,59,0.00,,,0.00,VWS V14.01,2013-02-18 09:40:00,
2013-02-18 03:45:00,53.0,39.5,29.73,SSW,212,13.5,23.0,60,0.00,,,0.00,VWS V14.01,2013-02-18 09:45:00,
2013-02-18 03:50:00,52.9,39.4,29.73,SW,214,24.0,24.0,60,0.00,,,0.00,VWS V14.01,2013-02-18 09:50:00,
2013-02-18 03:55:00,52.9,39.8,29.73,SSE,168,7.5,23.0,61,0.00,,,0.00,VWS V14.01,2013-02-18 09:55:00,
2013-02-18 04:00:00,52.9,39.8,29.73,WSW,238,16.5,19.0,61,0.00,,,0.00,VWS V14.01,2013-02-18 10:00:00,
2013-02-18 04:05:00,52.8,40.2,29.72,SSW,208,10.5,20.0,62,0.00,,,0.00,VWS V14.01,2013-02-18 10:05:00,
2013-02-18 04:10:00,52.7,40.1,29.72,SE,146,13.5,20.0,62,0.00,,,0.00,VWS V14.01,2013-02-18 10:10:00,
2013-02-18 04:15:00,52.7,40.5,29.72,SE,143,21.0,21.0,63,0.00,,,0.00,VWS V14.01,2013-02-18 10:15:00,
2013-02-18 04:20:00,52.7,40.5,29.72,SSW,205,21.0,21.0,63,0.00,,,0.00,VWS V14.01,2013-02-18 10:20:00,
2013-02-18 04:25:00,52.6,40.8,29.72,South,171,13.5,20.0,64,0.00,,,0.00,VWS V14.01,2013-02-18 10:25:00,
2013-02-18 04:30:00,52.5,41.1,29.72,SW,222,13.5,20.0,65,0.00,,,0.00,VWS V14.01,2013-02-18 10:30:00,
2013-02-18 04:35:00,52.5,41.1,29.72,SW,226,12.0,20.0,65,0.00,,,0.00,VWS V14.01,2013-02-18 10:35:00,
2013-02-18 04:40:00,52.5,41.5,29.72,SSW,207,4.5,20.0,66,0.00,,,0.00,VWS V14.01,2013-02-18 10:40:00,
2013-02-18 04:45:00,52.6,41.6,29.71,SSW,212,9.0,20.0,66,0.00,,,0.00,VWS V14.01,2013-02-18 10:45:00,
2013-02-18 04:50:00,52.8,41.8,29.71,South,181,12.0,20.0,66,0.00,,,0.00,VWS V14.01,2013-02-18 10:50:00,
2013-02-18 04:55:00,52.9,42.3,29.71,SSE,162,4.5,20.0,67,0.00,,,0.00,VWS V14.01,2013-02-18 10:55:00,
2013-02-18 05:00:00,52.8,42.2,29.71,SE,139,12.0,20.0,67,0.00,,,0.00,VWS V14.01,2013-02-18 11:00:00,
2013-02-18 05:05:00,52.7,42.5,29.71,South,186,9.0,20.0,68,0.00,,,0.00,VWS V14.01,2013-02-18 11:05:00,
2013-02-18 05:10:00,52.8,42.5,29.71,SSW,194,12.0,20.0,68,0.00,,,0.00,VWS V14.01,2013-02-18 11:10:00,
2013-02-18 05:15:00,52.8,42.5,29.70,SSW,210,28.5,28.5,68,0.00,,,0.00,VWS V14.01,2013-02-18 11:15:00,
2013-02-18 05:20:00,52.8,42.9,29.71,SSW,202,4.5,20.0,69,0.00,,,0.00,VWS V14.01,2013-02-18 11:20:00,
2013-02-18 05:25:00,53.1,43.2,29.71,SW,236,10.5,20.0,69,0.00,,,0.00,VWS V14.01,2013-02-18 11:25:00,
2013-02-18 05:30:00,53.2,43.3,29.71,South,174,12.0,20.0,69,0.00,,,0.00,VWS V14.01,2013-02-18 11:30:00,
2013-02-18 05:35:00,53.4,43.5,29.70,SSW,202,12.0,20.0,69,0.00,,,0.00,VWS V14.01,2013-02-18 11:35:00,
2013-02-18 05:40:00,53.6,43.3,29.70,South,191,10.5,20.0,68,0.00,,,0.00,VWS V14.01,2013-02-18 11:40:00,
2013-02-18 05:45:00,53.6,43.3,29.70,SSE,158,10.5,20.0,68,0.00,,,0.00,VWS V14.01,2013-02-18 11:45:00,
2013-02-18 05:50:00,53.6,43.3,29.70,South,177,7.5,20.0,68,0.00,,,0.00,VWS V14.01,2013-02-18 11:50:00,
2013-02-18 05:55:00,53.6,43.3,29.70,SE,136,24.0,24.0,68,0.00,,,0.00,VWS V14.01,2013-02-18 11:55:00,
2013-02-18 06:00:00,53.6,43.3,29.70,SSW,193,13.5,15.0,68,0.00,,,0.00,VWS V14.01,2013-02-18 12:00:00,
2013-02-18 06:05:00,53.6,43.3,29.70,SW,228,7.5,17.0,68,0.00,,,0.00,VWS V14.01,2013-02-18 12:05:00,
2013-02-18 06:10:00,53.5,43.6,29.69,South,186,12.0,17.0,69,0.00,,,0.00,VWS V14.01,2013-02-18 12:10:00,
2013-02-18 06:15:00,53.6,43.7,29.69,SSE,160,12.0,17.0,69,0.00,,,0.00,VWS V14.01,2013-02-18 12:15:00,
2013-02-18 06:20:00,53.5,43.6,29.68,SSW,207,6.0,18.0,69,0.00,,,0.00,VWS V14.01,2013-02-18 12:20:00,
2013-02-18 06:25:00,53.6,43.7,29.68,South,186,13.5,19.0,69,0.00,,,0.00,VWS V14.01,2013-02-18 12:25:00,
2013-02-18 06:30:00,53.5,43.6,29.68,South,176,18.0,25.0,69,0.00,,,0.00,VWS V14.01,2013-02-18 12:30:00,
2013-02-18 06:35:00,53.5,43.6,29.68,SSE,164,4.5,25.0,69,0.00,,,0.00,VWS V14.01,2013-02-18 12:35:00,
2013-02-18 06:40:00,53.4,43.5,29.67,South,176,10.5,25.0,69,0.00,,,0.00,VWS V14.01,2013-02-18 12:40:00,
2013-02-18 06:45:00,53.2,43.7,29.67,South,186,15.0,25.0,70,0.00,,,0.00,VWS V14.01,2013-02-18 12:45:00,
2013-02-18 06:50:00,53.2,43.7,29.67,South,190,10.5,25.0,70,0.00,,,0.00,VWS V14.01,2013-02-18 12:50:00,
2013-02-18 06:56:00,53.1,43.6,29.67,SE,137,16.5,25.0,70,0.00,,,0.00,VWS V14.01,2013-02-18 12:56:00,
2013-02-18 07:00:00,53.6,45.2,29.67,South,173,10.5,25.0,73,0.00,,,0.00,VWS V14.01,2013-02-18 13:00:00,
2013-02-18 07:01:00,53.0,43.9,29.67,SSE,150,22.5,25.0,71,0.00,,,0.00,VWS V14.01,2013-02-18 13:01:00,
2013-02-18 07:06:00,53.0,43.9,29.67,South,176,10.5,25.0,71,0.00,,,0.00,VWS V14.01,2013-02-18 13:06:00,
2013-02-18 07:11:00,53.1,44.0,29.67,West,277,16.5,25.0,71,0.00,,,0.00,VWS V14.01,2013-02-18 13:11:00,
2013-02-18 07:16:00,53.2,44.4,29.67,SE,125,12.0,25.0,72,0.00,,,0.00,VWS V14.01,2013-02-18 13:16:00,
2013-02-18 07:21:00,53.2,44.4,29.66,SSW,204,13.5,25.0,72,0.00,,,0.00,VWS V14.01,2013-02-18 13:21:00,
2013-02-18 07:26:00,53.4,44.6,29.66,South,170,18.0,25.0,72,0.00,,,0.00,VWS V14.01,2013-02-18 13:26:00,
2013-02-18 07:31:00,53.4,44.6,29.67,SSW,204,9.0,25.0,72,0.00,,,0.00,VWS V14.01,2013-02-18 13:31:00,
2013-02-18 07:36:00,53.5,44.7,29.66,SSE,159,13.5,25.0,72,0.00,,,0.00,VWS V14.01,2013-02-18 13:36:00,
2013-02-18 07:41:00,53.6,44.8,29.67,South,176,25.5,25.5,72,0.00,,,0.00,VWS V14.01,2013-02-18 13:41:00,
2013-02-18 07:46:00,53.6,45.2,29.67,SW,215,19.5,25.0,73,0.00,,,0.00,VWS V14.01,2013-02-18 13:46:00,
2013-02-18 07:51:00,53.6,45.2,29.67,SSE,159,13.5,25.0,73,0.00,,,0.00,VWS V14.01,2013-02-18 13:51:00,
2013-02-18 07:56:00,53.6,45.2,29.67,SSW,212,9.0,25.0,73,0.00,,,0.00,VWS V14.01,2013-02-18 13:56:00,
2013-02-18 08:00:00,53.6,45.2,29.67,South,173,10.5,25.0,73,0.00,,,0.00,VWS V14.01,2013-02-18 14:00:00,
2013-02-18 08:01:00,53.6,45.2,29.67,SSW,204,15.0,15.0,73,0.00,,,0.00,VWS V14.01,2013-02-18 14:01:00,
2013-02-18 08:06:00,53.8,45.7,29.67,SSE,165,6.0,16.0,74,0.00,,,0.00,VWS V14.01,2013-02-18 14:06:00,
2013-02-18 08:11:00,53.8,45.7,29.67,SSW,212,7.5,16.0,74,0.00,,,0.00,VWS V14.01,2013-02-18 14:11:00,
2013-02-18 08:16:00,53.8,45.7,29.67,SSW,205,7.5,16.0,74,0.00,,,0.00,VWS V14.01,2013-02-18 14:16:00,
2013-02-18 08:21:00,53.8,45.7,29.67,South,181,16.5,16.5,74,0.00,,,0.00,VWS V14.01,2013-02-18 14:21:00,
2013-02-18 08:26:00,53.8,45.7,29.67,SSW,194,6.0,17.0,74,0.00,,,0.00,VWS V14.01,2013-02-18 14:26:00,
2013-02-18 08:31:00,53.9,45.8,29.67,South,173,19.5,19.5,74,0.00,,,0.00,VWS V14.01,2013-02-18 14:31:00,
2013-02-18 08:36:00,53.9,46.2,29.67,SSW,195,10.5,17.0,75,0.00,,,0.00,VWS V14.01,2013-02-18 14:36:00,
2013-02-18 08:41:00,53.9,46.2,29.67,SSW,201,6.0,17.0,75,0.00,,,0.00,VWS V14.01,2013-02-18 14:41:00,
2013-02-18 08:46:00,53.9,46.2,29.67,SSW,194,16.5,17.0,75,0.00,,,0.00,VWS V14.01,2013-02-18 14:46:00,
2013-02-18 08:51:00,53.9,46.2,29.67,South,181,18.0,18.0,75,0.00,,,0.00,VWS V14.01,2013-02-18 14:51:00,
2013-02-18 08:56:00,53.9,46.2,29.67,SW,236,7.5,17.0,75,0.00,,,0.00,VWS V14.01,2013-02-18 14:56:00,
2013-02-18 09:00:00,55.3,47.9,29.65,SE,127,12.0,21.0,76,0.00,,,0.00,VWS V14.01,2013-02-18 15:00:00,
2013-02-18 09:01:00,54.0,46.3,29.67,South,187,28.5,28.5,75,0.00,,,0.00,VWS V14.01,2013-02-18 15:01:00,
2013-02-18 09:06:00,54.1,46.7,29.67,SSE,167,18.0,19.0,76,0.00,,,0.00,VWS V14.01,2013-02-18 15:06:00,
2013-02-18 09:11:00,54.1,46.7,29.67,South,187,9.0,19.0,76,0.00,,,0.00,VWS V14.01,2013-02-18 15:11:00,
2013-02-18 09:16:00,54.2,46.8,29.66,South,174,15.0,19.0,76,0.00,,,0.00,VWS V14.01,2013-02-18 15:16:00,
2013-02-18 09:21:00,54.4,47.0,29.66,ESE,118,15.0,19.0,76,0.00,,,0.00,VWS V14.01,2013-02-18 15:21:00,
2013-02-18 09:26:00,54.5,47.1,29.66,SW,219,7.5,20.0,76,0.00,,,0.00,VWS V14.01,2013-02-18 15:26:00,
2013-02-18 09:31:00,54.5,47.1,29.66,South,191,12.0,20.0,76,0.00,,,0.00,VWS V14.01,2013-02-18 15:31:00,
2013-02-18 09:36:00,54.6,47.2,29.65,SSW,194,12.0,20.0,76,0.00,,,0.00,VWS V14.01,2013-02-18 15:36:00,
2013-02-18 09:40:00,54.7,47.3,29.65,South,173,7.5,21.0,76,0.00,,,0.00,VWS V14.01,2013-02-18 15:40:00,
2013-02-18 09:45:00,54.8,47.4,29.65,SW,226,16.5,21.0,76,0.00,,,0.00,VWS V14.01,2013-02-18 15:45:00,
2013-02-18 09:50:00,54.9,47.5,29.65,West,266,18.0,21.0,76,0.00,,,0.00,VWS V14.01,2013-02-18 15:50:00,
2013-02-18 09:55:00,55.1,47.7,29.65,South,180,15.0,21.0,76,0.00,,,0.00,VWS V14.01,2013-02-18 15:55:00,
2013-02-18 10:00:00,55.3,47.9,29.65,South,188,9.0,18.0,76,0.00,,,0.00,VWS V14.01,2013-02-18 16:00:00,
2013-02-18 10:05:00,55.5,47.7,29.64,SSE,160,13.5,18.0,75,0.00,,,0.00,VWS V14.01,2013-02-18 16:05:00,
2013-02-18 10:10:00,55.5,48.1,29.64,South,180,12.0,19.0,76,0.00,,,0.00,VWS V14.01,2013-02-18 16:10:00,
2013-02-18 10:15:00,55.6,48.2,29.64,South,184,13.5,19.0,76,0.00,,,0.00,VWS V14.01,2013-02-18 16:15:00,
2013-02-18 10:20:00,55.6,48.2,29.64,SE,143,3.0,19.0,76,0.00,,,0.00,VWS V14.01,2013-02-18 16:20:00,
2013-02-18 10:25:00,55.6,48.2,29.64,SW,215,10.5,19.0,76,0.00,,,0.00,VWS V14.01,2013-02-18 16:25:00,
2013-02-18 10:30:00,55.6,48.2,29.64,SSW,195,6.0,19.0,76,0.00,,,0.00,VWS V14.01,2013-02-18 16:30:00,
2013-02-18 10:35:00,55.7,48.3,29.63,West,264,4.5,19.0,76,0.00,,,0.00,VWS V14.01,2013-02-18 16:35:00,
2013-02-18 10:40:00,55.9,48.5,29.63,SSW,208,18.0,19.0,76,0.00,,,0.00,VWS V14.01,2013-02-18 16:40:00,
2013-02-18 10:45:00,56.1,48.7,29.63,SSW,207,15.0,19.0,76,0.00,,,0.00,VWS V14.01,2013-02-18 16:45:00,
2013-02-18 10:50:00,56.3,48.8,29.62,South,177,21.0,21.0,76,0.00,,,0.00,VWS V14.01,2013-02-18 16:50:00,
2013-02-18 10:55:00,56.4,48.9,29.62,SSE,152,4.5,21.0,76,0.00,,,0.00,VWS V14.01,2013-02-18 16:55:00,
2013-02-18 11:00:00,56.5,48.7,29.62,SW,224,9.0,21.0,75,0.00,,,0.00,VWS V14.01,2013-02-18 17:00:00,
2013-02-18 11:06:00,56.5,49.0,29.63,SSW,194,13.5,21.0,76,0.00,,,0.00,VWS V14.01,2013-02-18 17:06:00,
2013-02-18 11:11:00,56.1,49.3,29.62,SSE,159,16.5,21.0,78,0.00,,,0.00,VWS V14.01,2013-02-18 17:11:00,
2013-02-18 11:16:00,55.8,49.4,29.62,SE,129,6.0,21.0,79,0.00,,,0.00,VWS V14.01,2013-02-18 17:16:00,
2013-02-18 11:21:00,55.6,49.5,29.62,South,174,10.5,21.0,80,0.00,,,0.00,VWS V14.01,2013-02-18 17:21:00,
2013-02-18 11:26:00,55.6,49.5,29.62,SSE,163,4.5,21.0,80,0.00,,,0.00,VWS V14.01,2013-02-18 17:26:00,
2013-02-18 11:31:00,55.6,49.5,29.61,SSE,165,4.5,21.0,80,0.00,,,0.00,VWS V14.01,2013-02-18 17:31:00,
2013-02-18 11:36:00,55.8,49.7,29.61,SW,226,10.5,21.0,80,0.00,,,0.00,VWS V14.01,2013-02-18 17:36:00,
2013-02-18 11:41:00,55.9,49.8,29.61,SSW,212,15.0,21.0,80,0.00,,,0.00,VWS V14.01,2013-02-18 17:41:00,
2013-02-18 11:46:00,55.9,49.8,29.61,South,186,12.0,21.0,80,0.00,,,0.00,VWS V14.01,2013-02-18 17:46:00,
2013-02-18 11:51:00,55.8,50.1,29.61,SE,145,18.0,21.0,81,0.00,,,0.00,VWS V14.01,2013-02-18 17:51:00,
2013-02-18 11:56:00,55.7,50.3,29.60,South,176,6.0,21.0,82,0.00,,,0.00,VWS V14.01,2013-02-18 17:56:00,
2013-02-18 12:00:00,55.7,50.3,29.60,SSE,160,9.0,21.0,82,0.01,,,0.01,VWS V14.01,2013-02-18 18:00:00,
2013-02-18 12:01:00,55.7,50.3,29.60,South,175,7.5,9.0,82,0.00,,,0.01,VWS V14.01,2013-02-18 18:01:00,
2013-02-18 12:06:00,55.5,50.4,29.60,SSW,208,6.0,12.0,83,0.00,,,0.01,VWS V14.01,2013-02-18 18:06:00,
2013-02-18 12:11:00,55.6,50.5,29.60,South,183,12.0,13.0,83,0.01,,,0.02,VWS V14.01,2013-02-18 18:11:00,
2013-02-18 12:16:00,55.7,50.6,29.60,South,184,12.0,20.0,83,0.01,,,0.02,VWS V14.01,2013-02-18 18:16:00,
2013-02-18 12:21:00,55.6,50.8,29.59,SSW,204,3.0,20.0,84,0.01,,,0.02,VWS V14.01,2013-02-18 18:21:00,
2013-02-18 12:26:00,55.7,51.0,29.58,SSE,155,16.5,20.0,84,0.01,,,0.02,VWS V14.01,2013-02-18 18:26:00,
2013-02-18 12:31:00,55.7,50.6,29.58,WSW,241,7.5,20.0,83,0.01,,,0.02,VWS V14.01,2013-02-18 18:31:00,
2013-02-18 12:36:00,55.8,51.0,29.58,SSW,194,12.0,20.0,84,0.01,,,0.02,VWS V14.01,2013-02-18 18:36:00,
2013-02-18 12:42:00,56.1,51.3,29.57,SSE,155,12.0,12.0,84,0.01,,,0.02,VWS V14.01,2013-02-18 18:42:00,
2013-02-18 12:47:00,56.6,51.8,29.57,SW,225,18.0,18.0,84,0.01,,,0.02,VWS V14.01,2013-02-18 18:47:00,
2013-02-18 12:52:00,57.2,52.4,29.56,SSW,203,13.5,18.0,84,0.01,,,0.02,VWS V14.01,2013-02-18 18:52:00,
2013-02-18 12:57:00,57.3,52.2,29.56,SSW,208,6.0,19.0,83,0.01,,,0.02,VWS V14.01,2013-02-18 18:57:00,
2013-02-18 13:00:00,57.7,50.9,29.54,South,184,7.5,19.0,78,0.02,,,0.03,VWS V14.01,2013-02-18 19:00:00,
2013-02-18 13:02:00,57.1,51.7,29.56,South,173,10.5,19.0,82,0.01,,,0.02,VWS V14.01,2013-02-18 19:02:00,
2013-02-18 13:07:00,57.0,51.6,29.56,South,173,10.5,19.0,82,0.01,,,0.02,VWS V14.01,2013-02-18 19:07:00,
2013-02-18 13:12:00,56.9,51.8,29.55,SW,235,7.5,19.0,83,0.02,,,0.03,VWS V14.01,2013-02-18 19:12:00,
2013-02-18 13:17:00,56.9,51.8,29.55,South,188,4.5,19.0,83,0.02,,,0.03,VWS V14.01,2013-02-18 19:17:00,
2013-02-18 13:22:00,56.8,51.7,29.55,SSW,195,6.0,19.0,83,0.02,,,0.03,VWS V14.01,2013-02-18 19:22:00,
2013-02-18 13:27:00,56.9,51.8,29.56,SE,139,7.5,19.0,83,0.02,,,0.03,VWS V14.01,2013-02-18 19:27:00,
2013-02-18 13:32:00,56.8,51.7,29.55,SSE,159,7.5,19.0,83,0.02,,,0.03,VWS V14.01,2013-02-18 19:32:00,
2013-02-18 13:37:00,56.9,51.8,29.55,SSW,193,3.0,19.0,83,0.02,,,0.03,VWS V14.01,2013-02-18 19:37:00,
2013-02-18 13:42:00,57.2,52.1,29.54,SW,235,4.5,19.0,83,0.02,,,0.03,VWS V14.01,2013-02-18 19:42:00,
2013-02-18 13:47:00,57.5,52.1,29.54,South,188,19.5,19.5,82,0.02,,,0.03,VWS V14.01,2013-02-18 19:47:00,
2013-02-18 13:52:00,57.6,51.8,29.54,SSW,205,4.5,19.0,81,0.02,,,0.03,VWS V14.01,2013-02-18 19:52:00,
2013-02-18 13:57:00,57.7,51.2,29.54,SSW,204,13.5,19.0,79,0.02,,,0.03,VWS V14.01,2013-02-18 19:57:00,
2013-02-18 14:02:00,57.7,50.9,29.55,West,263,7.5,14.0,78,0.00,,,0.03,VWS V14.01,2013-02-18 20:02:00,
2013-02-18 14:07:00,57.6,50.5,29.55,SW,233,6.0,14.0,77,0.00,,,0.03,VWS V14.01,2013-02-18 20:07:00,
2013-02-18 14:12:00,57.6,50.8,29.55,South,186,4.5,14.0,78,0.00,,,0.03,VWS V14.01,2013-02-18 20:12:00,
2013-02-18 14:17:00,57.1,51.3,29.57,SW,232,10.5,14.0,81,0.01,,,0.04,VWS V14.01,2013-02-18 20:17:00,
2013-02-18 14:22:00,55.7,50.3,29.57,WSW,252,10.5,14.0,82,0.02,,,0.05,VWS V14.01,2013-02-18 20:22:00,
2013-02-18 14:27:00,55.0,49.9,29.58,West,274,4.5,14.0,83,0.02,,,0.05,VWS V14.01,2013-02-18 20:27:00,
2013-02-18 14:32:00,54.8,49.4,29.58,WNW,290,4.5,14.0,82,0.02,,,0.05,VWS V14.01,2013-02-18 20:32:00,
2013-02-18 14:37:00,55.0,48.6,29.58,SE,128,3.0,14.0,79,0.02,,,0.05,VWS V14.01,2013-02-18 20:37:00,
2013-02-18 14:42:00,55.7,48.6,29.58,WNW,293,3.0,14.0,77,0.02,,,0.05,VWS V14.01,2013-02-18 20:42:00,
2013-02-18 14:47:00,55.9,47.4,29.58,West,269,3.0,14.0,73,0.02,,,0.05,VWS V14.01,2013-02-18 20:47:00,
2013-02-18 14:52:00,56.7,48.9,29.58,WNW,290,6.0,14.0,75,0.02,,,0.05,VWS V14.01,2013-02-18 20:52:00,
2013-02-18 14:58:00,57.2,44.3,29.59,NNW,333,6.0,14.0,62,0.02,,,0.05,VWS V14.01,2013-02-18 20:58:00,
2013-02-18 15:00:00,53.5,37.3,29.66,WNW,287,4.5,21.0,54,0.02,,,0.05,VWS V14.01,2013-02-18 21:00:00,
2013-02-18 15:03:00,57.2,43.5,29.60,SW,235,4.5,14.0,60,0.02,,,0.05,VWS V14.01,2013-02-18 21:03:00,
2013-02-18 15:08:00,57.0,41.5,29.60,West,265,7.5,14.0,56,0.02,,,0.05,VWS V14.01,2013-02-18 21:08:00,
2013-02-18 15:13:00,57.3,43.1,29.60,SW,233,6.0,14.0,59,0.02,,,0.05,VWS V14.01,2013-02-18 21:13:00,
2013-02-18 15:18:00,57.2,40.2,29.60,West,262,7.5,14.0,53,0.02,,,0.05,VWS V14.01,2013-02-18 21:18:00,
2013-02-18 15:23:00,56.8,39.9,29.61,WNW,302,12.0,14.0,53,0.02,,,0.05,VWS V14.01,2013-02-18 21:23:00,
2013-02-18 15:28:00,56.5,40.1,29.62,NW,305,12.0,16.0,54,0.02,,,0.05,VWS V14.01,2013-02-18 21:28:00,
2013-02-18 15:33:00,56.2,38.3,29.62,West,273,4.5,16.0,51,0.02,,,0.05,VWS V14.01,2013-02-18 21:33:00,
2013-02-18 15:38:00,55.9,38.5,29.63,SW,224,4.5,16.0,52,0.02,,,0.05,VWS V14.01,2013-02-18 21:38:00,
2013-02-18 15:43:00,55.5,38.2,29.64,WNW,300,9.0,16.0,52,0.02,,,0.05,VWS V14.01,2013-02-18 21:43:00,
2013-02-18 15:48:00,55.0,38.7,29.65,WSW,251,13.5,16.0,54,0.02,,,0.05,VWS V14.01,2013-02-18 21:48:00,
2013-02-18 15:53:00,54.2,38.4,29.65,NNW,330,7.5,19.0,55,0.02,,,0.05,VWS V14.01,2013-02-18 21:53:00,
2013-02-18 15:58:00,53.6,37.8,29.66,WSW,245,12.0,21.0,55,0.02,,,0.05,VWS V14.01,2013-02-18 21:58:00,
2013-02-18 16:03:00,53.3,38.0,29.67,WNW,297,9.0,16.0,56,0.00,,,0.05,VWS V14.01,2013-02-18 22:03:00,
2013-02-18 16:08:00,52.9,38.1,29.67,WSW,240,10.5,16.0,57,0.00,,,0.05,VWS V14.01,2013-02-18 22:08:00,
2013-02-18 16:13:00,52.9,38.5,29.68,WNW,285,9.0,16.0,58,0.00,,,0.05,VWS V14.01,2013-02-18 22:13:00,
2013-02-18 16:18:00,52.7,37.9,29.68,North,352,4.5,16.0,57,0.00,,,0.05,VWS V14.01,2013-02-18 22:18:00,
2013-02-18 16:23:00,52.2,37.4,29.69,West,277,13.5,16.0,57,0.00,,,0.05,VWS V14.01,2013-02-18 22:23:00,
2013-02-18 16:28:00,51.9,37.6,29.70,WNW,293,6.0,16.0,58,0.00,,,0.05,VWS V14.01,2013-02-18 22:28:00,
2013-02-18 16:33:00,51.6,37.3,29.70,NW,318,15.0,16.0,58,0.00,,,0.05,VWS V14.01,2013-02-18 22:33:00,
2013-02-18 16:38:00,50.9,37.1,29.70,SSW,208,7.5,16.0,59,0.00,,,0.05,VWS V14.01,2013-02-18 22:38:00,
2013-02-18 16:43:00,50.4,36.6,29.71,WNW,291,12.0,16.0,59,0.00,,,0.05,VWS V14.01,2013-02-18 22:43:00,
2013-02-18 16:48:00,50.0,36.2,29.72,NW,315,7.5,16.0,59,0.00,,,0.05,VWS V14.01,2013-02-18 22:48:00,
2013-02-18 16:53:00,49.9,36.2,29.72,NW,322,19.5,19.5,59,0.00,,,0.05,VWS V14.01,2013-02-18 22:53:00,
2013-02-18 16:58:00,49.6,35.9,29.73,WSW,248,6.0,16.0,59,0.00,,,0.05,VWS V14.01,2013-02-18 22:58:00,
2013-02-18 17:00:00,47.9,35.1,29.79,West,262,4.5,19.0,61,0.00,,,0.05,VWS V14.01,2013-02-18 23:00:00,
2013-02-18 17:03:00,49.5,35.8,29.73,West,280,7.5,16.0,59,0.00,,,0.05,VWS V14.01,2013-02-18 23:03:00,
2013-02-18 17:08:00,49.4,35.7,29.74,WNW,295,7.5,16.0,59,0.00,,,0.05,VWS V14.01,2013-02-18 23:08:00,
2013-02-18 17:13:00,49.3,36.0,29.74,NW,308,10.5,16.0,60,0.00,,,0.05,VWS V14.01,2013-02-18 23:13:00,
2013-02-18 17:18:00,49.1,35.8,29.74,WNW,295,18.0,19.0,60,0.00,,,0.05,VWS V14.01,2013-02-18 23:18:00,
2013-02-18 17:23:00,49.0,35.7,29.75,NW,308,4.5,19.0,60,0.00,,,0.05,VWS V14.01,2013-02-18 23:23:00,
2013-02-18 17:28:00,48.8,35.5,29.75,NW,304,13.5,19.0,60,0.00,,,0.05,VWS V14.01,2013-02-18 23:28:00,
2013-02-18 17:33:00,48.7,35.9,29.75,WNW,301,7.5,19.0,61,0.00,,,0.05,VWS V14.01,2013-02-18 23:33:00,
2013-02-18 17:38:00,48.5,35.7,29.76,NW,316,10.5,19.0,61,0.00,,,0.05,VWS V14.01,2013-02-18 23:38:00,
2013-02-18 17:43:00,48.5,35.7,29.77,NNW,328,6.0,19.0,61,0.00,,,0.05,VWS V14.01,2013-02-18 23:43:00,
2013-02-18 17:48:00,48.4,35.6,29.78,WNW,291,10.5,19.0,61,0.00,,,0.05,VWS V14.01,2013-02-18 23:48:00,
2013-02-18 17:53:00,48.3,35.5,29.79,NE,46,6.0,19.0,61,0.00,,,0.05,VWS V14.01,2013-02-18 23:53:00,
2013-02-18 17:58:00,48.1,35.3,29.79,WNW,293,3.0,19.0,61,0.00,,,0.05,VWS V14.01,2013-02-18 23:58:00,
2013-02-18 18:03:00,47.8,35.0,29.80,NNW,330,6.0,8.0,61,0.00,,,0.05,VWS V14.01,2013-02-19 00:03:00,
2013-02-18 18:08:00,47.6,34.8,29.81,NW,308,3.0,9.0,61,0.00,,,0.05,VWS V14.01,2013-02-19 00:08:00,
2013-02-18 18:13:00,47.4,34.6,29.81,WNW,295,4.5,9.0,61,0.00,,,0.05,VWS V14.01,2013-02-19 00:13:00,
2013-02-18 18:18:00,47.4,34.6,29.81,WNW,295,10.5,10.5,61,0.00,,,0.05,VWS V14.01,2013-02-19 00:18:00,
2013-02-18 18:23:00,47.3,35.0,29.81,North,350,3.0,10.0,62,0.00,,,0.05,VWS V14.01,2013-02-19 00:23:00,
2013-02-18 18:28:00,47.1,34.8,29.81,NNW,340,4.5,10.0,62,0.00,,,0.05,VWS V14.01,2013-02-19 00:28:00,
2013-02-18 18:33:00,47.0,34.7,29.82,WNW,290,3.0,10.0,62,0.00,,,0.05,VWS V14.01,2013-02-19 00:33:00,
2013-02-18 18:38:00,46.8,34.9,29.82,NNE,12,1.5,10.0,63,0.00,,,0.05,VWS V14.01,2013-02-19 00:38:00,
2013-02-18 18:43:00,46.7,34.8,29.82,West,276,7.5,10.0,63,0.00,,,0.05,VWS V14.01,2013-02-19 00:43:00,
2013-02-18 18:48:00,46.4,34.5,29.83,SW,214,13.5,15.0,63,0.00,,,0.05,VWS V14.01,2013-02-19 00:48:00,
2013-02-18 18:53:00,46.1,34.6,29.83,NW,311,6.0,15.0,64,0.00,,,0.05,VWS V14.01,2013-02-19 00:53:00,
2013-02-18 18:58:00,45.7,34.6,29.84,NW,313,4.5,15.0,65,0.00,,,0.05,VWS V14.01,2013-02-19 00:58:00,
2013-02-18 19:00:00,41.6,31.8,29.90,West,259,4.5,16.0,68,0.00,,,0.05,VWS V14.01,2013-02-19 01:00:00,
2013-02-18 19:03:00,45.3,34.2,29.85,NW,322,4.5,15.0,65,0.00,,,0.05,VWS V14.01,2013-02-19 01:03:00,
2013-02-18 19:08:00,44.9,34.2,29.85,North,350,1.5,15.0,66,0.00,,,0.05,VWS V14.01,2013-02-19 01:08:00,
2013-02-18 19:13:00,44.5,33.5,29.85,WNW,300,6.0,15.0,65,0.00,,,0.05,VWS V14.01,2013-02-19 01:13:00,
2013-02-18 19:18:00,43.9,33.3,29.87,NW,318,7.5,15.0,66,0.00,,,0.05,VWS V14.01,2013-02-19 01:18:00,
2013-02-18 19:23:00,43.5,32.9,29.87,NNW,335,3.0,15.0,66,0.00,,,0.05,VWS V14.01,2013-02-19 01:23:00,
2013-02-18 19:28:00,43.1,32.5,29.88,NW,325,10.5,15.0,66,0.00,,,0.05,VWS V14.01,2013-02-19 01:28:00,
2013-02-18 19:33:00,42.8,32.2,29.88,NNE,15,16.5,16.5,66,0.00,,,0.05,VWS V14.01,2013-02-19 01:33:00,
2013-02-18 19:38:00,42.5,32.0,29.88,NE,56,7.5,16.0,66,0.00,,,0.05,VWS V14.01,2013-02-19 01:38:00,
2013-02-18 19:43:00,42.3,31.8,29.89,NNE,27,3.0,16.0,66,0.00,,,0.05,VWS V14.01,2013-02-19 01:43:00,
2013-02-18 19:48:00,42.0,31.9,29.89,North,352,10.5,16.0,67,0.00,,,0.05,VWS V14.01,2013-02-19 01:48:00,
2013-02-18 19:53:00,41.9,31.8,29.89,NNE,27,3.0,16.0,67,0.00,,,0.05,VWS V14.01,2013-02-19 01:53:00,
2013-02-18 19:58:00,41.6,31.8,29.90,NNW,338,4.5,16.0,68,0.00,,,0.05,VWS V14.01,2013-02-19 01:58:00,
2013-02-18 20:03:00,41.4,32.0,29.90,NW,318,6.0,9.0,69,0.00,,,0.05,VWS V14.01,2013-02-19 02:03:00,
2013-02-18 20:08:00,41.2,31.8,29.90,WNW,294,3.0,9.0,69,0.00,,,0.05,VWS V14.01,2013-02-19 02:08:00,
2013-02-18 20:13:00,41.1,31.7,29.91,WNW,294,9.0,10.0,69,0.00,,,0.05,VWS V14.01,2013-02-19 02:13:00,
2013-02-18 20:18:00,40.9,31.9,29.91,NW,321,1.5,10.0,70,0.00,,,0.05,VWS V14.01,2013-02-19 02:18:00,
2013-02-18 20:23:00,40.8,31.8,29.92,North,359,4.5,10.0,70,0.00,,,0.05,VWS V14.01,2013-02-19 02:23:00,
2013-02-18 20:28:00,40.6,31.6,29.92,NW,324,10.5,10.5,70,0.00,,,0.05,VWS V14.01,2013-02-19 02:28:00,
2013-02-18 20:33:00,40.6,31.6,29.93,NW,304,13.5,13.5,70,0.00,,,0.05,VWS V14.01,2013-02-19 02:33:00,
2013-02-18 20:38:00,40.7,31.7,29.93,NW,314,1.5,10.0,70,0.00,,,0.05,VWS V14.01,2013-02-19 02:38:00,
2013-02-18 20:43:00,40.7,32.0,29.93,NW,326,9.0,10.0,71,0.00,,,0.05,VWS V14.01,2013-02-19 02:43:00,
2013-02-18 20:48:00,40.8,32.1,29.94,NNW,335,9.0,10.0,71,0.00,,,0.05,VWS V14.01,2013-02-19 02:48:00,
2013-02-18 20:53:00,40.8,32.1,29.94,NW,308,3.0,10.0,71,0.00,,,0.05,VWS V14.01,2013-02-19 02:53:00,
2013-02-18 20:58:00,40.9,32.2,29.95,WNW,290,4.5,11.0,71,0.00,,,0.05,VWS V14.01,2013-02-19 02:58:00,
2013-02-18 21:03:00,40.9,32.6,29.95,North,356,6.0,11.0,72,0.00,,,0.05,VWS V14.01,2013-02-19 03:03:00,
2013-02-18 21:08:00,40.8,32.5,29.96,NNW,330,4.5,11.0,72,0.00,,,0.05,VWS V14.01,2013-02-19 03:08:00,
2013-02-18 21:13:00,40.8,32.1,29.96,NW,307,7.5,14.0,71,0.00,,,0.05,VWS V14.01,2013-02-19 03:13:00,
2013-02-18 21:18:00,40.6,31.2,29.97,NNW,339,7.5,14.0,69,0.00,,,0.05,VWS V14.01,2013-02-19 03:18:00,
2013-02-18 21:23:00,40.1,28.9,29.97,NNW,337,4.5,16.0,64,0.00,,,0.05,VWS V14.01,2013-02-19 03:23:00,
2013-02-18 21:28:00,39.8,28.6,29.97,North,356,3.0,16.0,64,0.00,,,0.05,VWS V14.01,2013-02-19 03:28:00,
2013-02-18 21:33:00,39.2,28.4,29.98,WNW,301,3.0,16.0,65,0.00,,,0.05,VWS V14.01,2013-02-19 03:33:00,
2013-02-18 21:38:00,38.8,28.1,29.98,WNW,297,13.5,16.0,65,0.00,,,0.05,VWS V14.01,2013-02-19 03:38:00,
2013-02-18 21:43:00,38.6,27.9,29.99,NNW,341,10.5,16.0,65,0.00,,,0.05,VWS V14.01,2013-02-19 03:43:00,
2013-02-18 21:48:00,38.2,27.9,29.99,North,352,10.5,16.0,66,0.00,,,0.05,VWS V14.01,2013-02-19 03:48:00,
2013-02-18 21:53:00,38.0,27.7,30.00,NNE,23,1.5,16.0,66,0.00,,,0.05,VWS V14.01,2013-02-19 03:53:00,
2013-02-18 21:58:00,37.7,27.8,30.00,NW,309,6.0,16.0,67,0.00,,,0.05,VWS V14.01,2013-02-19 03:58:00,
2013-02-18 22:03:00,37.6,27.6,30.00,NW,309,3.0,16.0,67,0.00,,,0.05,VWS V14.01,2013-02-19 04:03:00,
2013-02-18 22:08:00,37.3,27.4,30.01,NNW,328,12.0,16.0,67,0.00,,,0.05,VWS V14.01,2013-02-19 04:08:00,
2013-02-18 22:13:00,37.1,27.2,30.01,WNW,291,6.0,16.0,67,0.00,,,0.05,VWS V14.01,2013-02-19 04:13:00,
2013-02-18 22:18:00,36.9,27.0,30.01,North,6,10.5,16.0,67,0.00,,,0.05,VWS V14.01,2013-02-19 04:18:00,
2013-02-18 22:23:00,36.7,27.1,30.01,North,10,9.0,16.0,68,0.00,,,0.05,VWS V14.01,2013-02-19 04:23:00,
2013-02-18 22:28:00,36.6,26.7,30.02,NNE,16,13.5,16.0,67,0.00,,,0.05,VWS V14.01,2013-02-19 04:28:00,
2013-02-18 22:33:00,36.5,27.0,30.02,WNW,293,7.5,16.0,68,0.00,,,0.05,VWS V14.01,2013-02-19 04:33:00,
2013-02-18 22:38:00,36.3,26.8,30.02,WNW,298,4.5,16.0,68,0.00,,,0.05,VWS V14.01,2013-02-19 04:38:00,
2013-02-18 22:43:00,36.2,26.7,30.02,NNW,335,1.5,16.0,68,0.00,,,0.05,VWS V14.01,2013-02-19 04:43:00,
2013-02-18 22:48:00,36.0,26.5,30.03,WNW,296,1.5,16.0,68,0.00,,,0.05,VWS V14.01,2013-02-19 04:48:00,
2013-02-18 22:53:00,35.8,26.3,30.03,NW,306,3.0,16.0,68,0.00,,,0.05,VWS V14.01,2013-02-19 04:53:00,
2013-02-18 22:58:00,35.6,26.5,30.04,NNE,22,6.0,16.0,69,0.00,,,0.05,VWS V14.01,2013-02-19 04:58:00,
2013-02-18 23:00:00,35.6,26.5,30.04,NNW,327,7.5,16.0,69,0.00,,,0.05,VWS V14.01,2013-02-19 05:00:00,
2013-02-18 23:01:00,35.5,26.4,30.04,NW,315,3.0,16.0,69,0.00,,,0.05,VWS V14.01,2013-02-19 05:01:00,
2013-02-18 23:06:00,35.4,26.3,30.04,NW,326,3.0,16.0,69,0.00,,,0.05,VWS V14.01,2013-02-19 05:06:00,
2013-02-18 23:11:00,35.3,26.2,30.05,WNW,298,4.5,16.0,69,0.00,,,0.05,VWS V14.01,2013-02-19 05:11:00,
2013-02-18 23:16:00,35.1,26.3,30.05,WNW,285,3.0,16.0,70,0.00,,,0.05,VWS V14.01,2013-02-19 05:16:00,
2013-02-18 23:21:00,34.9,26.5,30.05,North,352,7.5,16.0,71,0.00,,,0.05,VWS V14.01,2013-02-19 05:21:00,
2013-02-18 23:26:00,34.7,26.3,30.06,North,8,6.0,16.0,71,0.00,,,0.05,VWS V14.01,2013-02-19 05:26:00,
2013-02-18 23:31:00,34.6,25.8,30.06,NW,304,3.0,16.0,70,0.00,,,0.05,VWS V14.01,2013-02-19 05:31:00,
2013-02-18 23:36:00,34.6,25.8,30.06,NW,306,3.0,16.0,70,0.00,,,0.05,VWS V14.01,2013-02-19 05:36:00,
2013-02-18 23:41:00,34.6,25.5,30.06,NW,326,7.5,16.0,69,0.00,,,0.05,VWS V14.01,2013-02-19 05:41:00,
2013-02-18 23:46:00,34.6,25.1,30.07,West,273,4.5,16.0,68,0.00,,,0.05,VWS V14.01,2013-02-19 05:46:00,
2013-02-18 23:51:00,34.6,25.1,30.07,NNW,343,6.0,16.0,68,0.00,,,0.05,VWS V14.01,2013-02-19 05:51:00,
2013-02-18 23:56:00,34.5,25.0,30.07,NNW,329,1.5,16.0,68,0.00,,,0.05,VWS V14.01,2013-02-19 05:56:00,